Regional Weather Roundup
Issued by NWS

Home | Current Version | Previous Version | Text Only | Print | Product List | Glossary On
Versions: 1 2 3 4 5 6 7 8 9 10 11 12 13 14 15 16 17 18 19 20 21 22 23 24 25 26 27
000
ASUS46 KPQR 240510
RWROR

OREGON REGIONAL WEATHER ROUNDUP
NATIONAL WEATHER SERVICE PORTLAND OR
1000 PM PDT WED APR 23 2014

NOTE: "FAIR" INDICATES FEW OR NO CLOUDS BELOW 12,000 FEET WITH
NO SIGNIFICANT WEATHER AND/OR OBSTRUCTIONS TO VISIBILITY.

ORZ001>013-240600-
NORTHWEST OREGON


CITY           SKY/WX    TMP DP  RH WIND       PRES   REMARKS
ASTORIA        LGT RAIN  53  50  89 S20G33    29.67S
NEWPORT        DRIZZLE   52  52 100 S25G37    29.83S
PORTLAND       LGT RAIN  54  51  90 S15G23    29.77F
VANCOUVER WA   LGT RAIN  53  50  89 SE7       29.76F
SCAPPOOSE      LGT RAIN  53  51  93 SE12      29.73F
HILLSBORO      LGT RAIN  52  50  93 S15       29.74F
AURORA         LGT RAIN  52  52 100 S20G31    29.79S
MCMINNVILLE    CLOUDY    54  54 100 S16G25    29.77S
SALEM          LGT RAIN  54  51  90 S15G26    29.80R
CORVALLIS      CLOUDY    54  52  94 S10       29.85R
EUGENE         LGT RAIN  53  50  89 S12       29.86R
$$

ORZ021-028-240600-
SOUTHWEST OREGON


CITY           SKY/WX    TMP DP  RH WIND       PRES   REMARKS
NORTH BEND     CLOUDY    54  52  94 S17G30    29.90F
BROOKINGS      LGT RAIN  51  51 100 S13       30.02F VSB 1/4
ROSEBURG       LGT RAIN  55  49  80 S3        29.90F
SEXTON SUMMIT  FOG       40  40 100 S16G24    29.93S VSB 1/4 WCI  31
MEDFORD        CLOUDY    53  48  83 NW6       29.96S
$$

ORZ009-041-240600-
COLUMBIA GORGE


CITY           SKY/WX    TMP DP  RH WIND       PRES   REMARKS
TROUTDALE      LGT RAIN  51  49  92 E3        29.77F
THE DALLES     CLOUDY    51  48  89 NE12      29.79F
$$

ORZ029>031-042>050-061>064-240600-
EASTERN OREGON


CITY           SKY/WX    TMP DP  RH WIND       PRES   REMARKS
REDMOND        CLOUDY    48  36  63 S20G25    29.84S
BEND           MOCLDY    45  37  76 S13       29.86F
KLAMATH FALLS  LGT RAIN  44  41  89 S7        29.98S
LAKEVIEW       CLOUDY    46  30  53 S14       30.01S
HERMISTON      LGT RAIN  52  48  86 SW3       29.83R
PENDLETON      LGT RAIN  50  44  80 CALM      29.83S
JOHN DAY       DRIZZLE   46  37  71 S18       29.90F
MEACHAM        LGT RAIN  42  38  85 CALM      29.86S
LA GRANDE      CLOUDY    46  34  61 SW3       29.87S
BAKER CITY     CLOUDY    46  32  58 E8        29.91R
BURNS          CLOUDY    42  34  73 CALM      29.95S
ROME             N/A     50  24  36 SE7       29.96R
ONTARIO        CLOUDY    50  37  61 CALM      29.95R
$$



USA.gov is the U.S. government's official web portal to all federal, state and local government web resources and services.